User: anonymous   Login
Location: A�n Tadlesse
(35.0351°N, 0.5353°E)
Time: 11:43:38
(UTC+00:00)
Language:

Meteosat 1 Rocket2 - Orbit

View from above orbital plane
View from above orbital plane
View from above satellite
View from above satellite

Ground track
Ground track

The orbit data is extracted from the following two-line orbital elements,

1 10490U 77108B   19340.53490410 +.00000113 +00000-0 +83701-5 0  9999
2 10490 028.2984 015.3187 1171878 069.4123 302.8053 12.66498797916772
Epoch (UTC): 06 December 2019 12:50:15
Eccentricity: 0.1171878
inclination: 28.2984°
perigee height: 485 km
apogee height: 2307 km
right ascension of ascending node: 15.3187°
argument of perigee: 69.4123°
revolutions per day: 12.66498797
mean anomaly at epoch: 302.8053°
orbit number at epoch: 91677

The dashed part of the orbit path shows where the satellite is in the earth's shadow,  

DLR